Weather History for KCMH - August, 2013

Change the Weather History Date:

Sunday, August 11, 2013

  Actual Average Record
Temperature  
Mean Temperature 75 °F 74 °F  
Max Temperature 84 °F 84 °F 96 °F (1944)
Min Temperature 66 °F 65 °F 48 °F (1967)
Degree Days  
Heating Degree Days 0 0  
Month to date heating degree days 0 0  
Since 1 June heating degree days 6 19  
Since 1 July heating degree days 0 0  
Cooling Degree Days 10 10  
Month to date cooling degree days 92 110  
Year to date cooling degree days 811 718  
Since 1 June cooling degree days 650 636  
Growing Degree Days 25 (Base 50)    
Moisture  
Dew Point 66 °F    
Average Humidity 74    
Maximum Humidity 93    
Minimum Humidity 55    
Precipitation  
Precipitation 0.00 in 0.09 in 3.60 in (1915)
Month to date precipitation 1.68 1.21  
Year to date precipitation 25.48 25.58  
Snow  
Snow 0.00 in 0.00 in 0.00 in ()
Month to date snowfall 0.0 0.0  
Since 1 June snowfall 0.0 0.0  
Since 1 July snowfall 0.0 0.0  
Snow Depth 0.00 in    
Sea Level Pressure  
Sea Level Pressure 30.06 in    
Wind  
Wind Speed 3 mph (NW)    
Max Wind Speed 14 mph    
Max Gust Speed 17 mph    
Visibility 10 miles    
Events      
T = Trace of Precipitation, MM = Missing Value Source: NWS Daily Summary

Daily Weather History Graph

Daily Weather History Graph

Search for Another Location

Airport or City:

Trip Planner

Search our weather history database for the weather conditions in past years. The results will help you decide how hot, cold, wet, or windy it might be!

Date:

Astronomy

Aug. 11, 2013 Rise Set
Actual Time 6:39 AM EDT 8:33 PM EDT
Civil Twilight 6:10 AM EDT 9:02 PM EDT
Nautical Twilight 5:34 AM EDT 9:37 PM EDT
Astronomical Twilight 4:55 AM EDT 10:16 PM EDT
Moon 11:26 AM EDT (8/11) 10:48 PM EDT (8/11)
Length of Visible Light 14h 52m
Length of Day
13h 53m
Waxing Crescent, 22% of the Moon is Illuminated
Aug 11
Waxing Crescent
Aug 14
First Quarter
Aug 20
Full
Aug 28
Last Quarter
Sep 5
New

Hourly Weather History & Observations

Time (EDT) Temp. Heat Index Dew Point Humidity Pressure Visibility Wind Dir Wind Speed Gust Speed Precip Events Conditions
12:51 AM 71.1 °F - 66.0 °F 84% 30.07 in 10.0 mi Calm Calm - N/A   Clear
1:51 AM 70.0 °F - 66.0 °F 87% 30.08 in 10.0 mi Calm Calm - N/A   Clear
2:51 AM 69.1 °F - 66.0 °F 90% 30.08 in 10.0 mi Calm Calm - N/A   Partly Cloudy
3:51 AM 66.9 °F - 64.9 °F 93% 30.08 in 10.0 mi Calm Calm - N/A   Scattered Clouds
4:51 AM 66.9 °F - 64.9 °F 93% 30.07 in 10.0 mi ENE 3.5 mph - N/A   Scattered Clouds
5:51 AM 66.9 °F - 64.9 °F 93% 30.07 in 10.0 mi Calm Calm - N/A   Partly Cloudy
6:51 AM 66.0 °F - 64.0 °F 93% 30.09 in 8.0 mi Calm Calm - N/A   Partly Cloudy
7:51 AM 68.0 °F - 64.9 °F 90% 30.09 in 9.0 mi Calm Calm - N/A   Clear
8:51 AM 71.1 °F - 66.0 °F 84% 30.09 in 10.0 mi Calm Calm - N/A   Partly Cloudy
9:51 AM 73.9 °F - 66.9 °F 79% 30.09 in 10.0 mi Calm Calm - N/A   Scattered Clouds
10:51 AM 75.9 °F - 68.0 °F 76% 30.10 in 10.0 mi Calm Calm - N/A   Mostly Cloudy
11:51 AM 80.1 °F 82.7 °F 68.0 °F 67% 30.09 in 10.0 mi Calm Calm - N/A   Mostly Cloudy
12:51 PM 82.0 °F 84.9 °F 68.0 °F 62% 30.07 in 10.0 mi Variable 3.5 mph - N/A   Mostly Cloudy
1:51 PM 82.0 °F 84.1 °F 66.0 °F 58% 30.06 in 10.0 mi SW 6.9 mph - N/A   Overcast
2:51 PM 82.9 °F 85.4 °F 66.9 °F 58% 30.04 in 10.0 mi West 3.5 mph - N/A   Mostly Cloudy
3:51 PM 82.9 °F 85.0 °F 66.0 °F 56% 30.03 in 10.0 mi WNW 8.1 mph - N/A   Mostly Cloudy
4:51 PM 81.0 °F 84.1 °F 69.1 °F 67% 30.03 in 10.0 mi SSW 6.9 mph - N/A   Mostly Cloudy
5:51 PM 84.0 °F 86.5 °F 66.9 °F 56% 30.02 in 10.0 mi NNW 11.5 mph - N/A   Mostly Cloudy
6:51 PM 82.0 °F 84.1 °F 66.0 °F 58% 30.01 in 10.0 mi North 8.1 mph - N/A   Partly Cloudy
7:51 PM 80.1 °F 81.7 °F 64.0 °F 58% 30.03 in 10.0 mi North 8.1 mph - N/A   Partly Cloudy
8:51 PM 77.0 °F - 63.0 °F 62% 30.05 in 10.0 mi Calm Calm - N/A   Partly Cloudy
9:51 PM 75.9 °F - 63.0 °F 64% 30.06 in 10.0 mi North 3.5 mph - N/A   Clear
10:51 PM 73.0 °F - 64.0 °F 73% 30.06 in 10.0 mi Calm Calm - N/A   Clear
11:51 PM 71.1 °F - 64.0 °F 78% 30.07 in 10.0 mi Calm Calm - N/A   Clear